This demonstration page uses our WeatherBlox Daily Observations layout. Learn more.

Left ArrowRight Arrow

Hourly Observations for December 11, 2021

Temp ( °F °C ) Dew Point ( °F °C ) Humidity (%) Winds ( mph kmh ) Pressure ( in mb ) Visibility ( mi km ) Precip ( " mm )
12:56 am 00:56 Cloudy with Light Snow 31 -0.7 25 -3.9 79 79 NW 16 26 29.80 1009 5 8 0.00 0.00
1:56 am 01:56 Windy with Snow Likely 31 -0.4 25 -3.9 78 78 NNW 20 31 29.84 1010 10 16 0.00 0.00
2:56 am 02:56 Cloudy with Light Snow 31 -0.6 25 -3.8 79 79 NW 13 20 29.89 1012 10 16 0.00 0.00
3:56 am 03:56 Cloudy 31 -0.6 26 -3.6 80 80 NW 9 15 29.91 1013 10 16 0.00 0.00
4:56 am 04:56 Mostly Clear 30 -1 24 -4.2 79 79 W 13 20 29.92 1013 10 16 0.00 0.00
5:56 am 05:56 Clear 30 -1.1 23 -5.1 75 75 WNW 14 22 29.96 1014 10 16 0.00 0.00
6:56 am 06:56 Clear 30 -1.2 22 -5.8 71 71 WNW 14 22 29.99 1016 10 16 0.00 0.00
7:56 am 07:56 Sunny 29 -1.7 20 -6.5 70 70 WNW 10 17 30.02 1017 10 16 0.00 0.00
8:56 am 08:56 Sunny 30 -1 19 -7 64 64 W 10 17 30.03 1017 10 16 0.00 0.00
9:56 am 09:56 Sunny 31 -0.5 20 -6.5 64 64 W 9 15 30.06 1018 10 16 0.00 0.00
10:56 am 10:56 Sunny 33 0.3 21 -6.3 62 62 W 9 15 30.08 1019 10 16 0.00 0.00
11:56 am 11:56 Sunny 35 1.5 21 -5.9 58 58 W 13 20 30.07 1018 10 16 0.00 0.00
12:56 pm 12:56 Sunny 38 3.1 22 -5.6 53 53 WNW 9 15 30.07 1018 10 16 0.00 0.00
1:56 pm 13:56 Sunny 40 4.5 22 -5.8 48 48 W 9 15 30.06 1018 10 16 0.00 0.00
2:56 pm 14:56 Sunny 42 5.3 21 -6.3 43 43 W 12 19 30.05 1018 10 16 0.00 0.00
3:56 pm 15:56 Mostly Sunny 41 4.8 20 -6.7 43 43 WSW 9 15 30.07 1018 10 16 0.00 0.00
4:56 pm 16:56 Mostly Clear 38 3.4 21 -6.3 49 49 W 3 6 30.06 1018 10 16 0.00 0.00
5:56 pm 17:56 Mostly Clear 35 1.9 21 -6.2 55 55 Calm 30.08 1019 10 16 0.00 0.00
6:56 pm 18:56 Mostly Cloudy 35 1.8 21 -6.1 56 56 SW 6 9 30.09 1019 10 16 0.00 0.00
7:56 pm 19:56 Mostly Cloudy 35 1.4 21 -6.2 57 57 SSW 8 13 30.09 1019 10 16 0.00 0.00
8:56 pm 20:56 Mostly Clear 33 0.6 20 -6.5 59 59 SSW 6 9 30.09 1019 10 16 0.00 0.00
9:56 pm 21:56 Mostly Cloudy 29 -1.4 20 -6.9 67 67 ESE 3 6 30.08 1019 10 16 0.00 0.00
10:56 pm 22:56 Partly Cloudy 28 -2.1 17 -8.2 63 63 Calm 30.08 1019 10 16 0.00 0.00
11:56 pm 23:56 Clear 29 -1.9 16 -9.1 58 58 Calm 30.06 1018 10 16 0.00 0.00

Powered by AerisWeather